OPS 4682 DEB, 38399

Orbit data source: Space-Track

OPS 4682 DEB, 38399 is space debris in LEO originally from a launch on Sat, 03 Apr 1965 UTC launched from the Air Force Western Test Range (AFWTR). Debris objects in space refer to the collection of defunct objects orbiting the Earth. Examples of debris include non-operational satellites, rocket bodies, and fragments generated from explosions, collisions, or faulty payload assembly.

Loading next visibility...
Identifier
38399, 1965-027DC
Orbit
LEO
Country
Flag of USUS
Related business
Manufacturer
Unknown
Mission
Spacecraft
Bus & Motor
Unknown
Mass
Unknown
Launch date (UTC)
1965-04-03 (61 years ago)
Launch vehicle
Unknown
Launch site
Air Force Western Test Range (AFWTR)
Object type
Payload
Rocket body
Debris
Shape & HBR
Unknown shape, 0.1 m
Radar Cross Section
Medium (>0.1 m² and <1 m²)

Expand to show TLE details & history
Last TLE update: 1 week ago

TLE from 1 week ago
0 OPS 4682 DEB
1 38399U 65027DC  26150.58440477 -.00000069  00000-0 -26704-3 0  9994
2 38399  90.2564  16.8263 0025698 161.8795 198.3247 12.96854158660479
Epoch: 2026-05-30T14:01Z
TLE epoch observation values (Epoch: 2026-05-30T14:01:32.572Z)
Latitude
Longitude
-81.65775°
Altitude
1,295.993 km
Speed
7.2 km/s
True Right ascension
01h 07m 18s
True Declination
0° 00' 00"
Sunlit
Object was in daylight at epoch
Visualization orbit readout
Latitude
Unknown
Longitude
Unknown
Altitude
Unknown
Speed
Unknown
Apparent Right ascension
Unknown
Apparent Declination
Unknown
Sunlit
N/A
Visualization observer readout
Local Sidereal Time
18:43:22
Azimuth
Unknown
Elevation
Unknown
Doppler factor
Unknown
Orbital elements
Apogee altitude
1,291.227 km
Perigee altitude
1,251.911 km
Semi-major axis
7,649.706 km
Eccentricity
0.00257
Inclination
90.2564°
RAAN
16.8263°
Arg. of periapsis
161.8795°
True anomaly
198.2324°
Mean anomaly
198.3247°
Eccentric anomaly
198.27852°
Mean motion
3.24396 °/min
Orbital period
110.98 mins
BSTAR
-0.00026704
Loading maneuver chart data...
Computing Atmospheric mass density...
Loading historical data...
Loading historical data...
Loading historical data...
Loading historical data...
Loading historical data...
Loading historical data...
Loading historical data...

Documentation

Showing up to 5 results
|